[[{"header":{"parameterUnit":"m.s-1","parameterCategory":1,"la1":30.2991,"la2":30.254,"lo1":-89.0895,"lo2":-89.0444,"dy":0.0017,"dx":0.0017,"nx":28,"ny":28,"refTime":"2024-02-20T09:00:00:Z","depth":0,"parameterNumber":2,"parameterNumberName":"U-component_of_WINDS"},"data":[0,0,0,0,0,0,0,0,0,0,0,0,0,0,0,0,0,0,0,0,0,0,0,0,0,0,0,0,0,0,0,0,0,0,0,0,0,0,0,0,0,0,0,0,0,0,0,0,0,0,0,0,0,0,0,0,0,0,1.3239,1.324,0,1.3306,1.3307,1.3308,1.3302,1.3301,1.33,1.33,1.3368,1.337,1.3373,0,0,0,0,0,0,0,0,0,0,0,0,0,1.3105,1.3107,1.3239,1.324,1.324,1.3306,1.3307,1.3308,1.3303,1.3301,1.33,1.3299,1.3367,1.337,1.3373,0,0,0,0,0,0,0,0,0,0,0,0,0,1.3167,1.3108,1.3239,1.3246,1.3247,1.3306,1.3307,1.3308,1.3303,1.3301,1.33,1.3298,1.3366,1.337,1.3374,1.343,0,0,1.3386,1.3388,0,0,0,0,0,0,0,0,1.3163,1.3172,1.3244,1.3245,1.3247,1.3294,1.3285,1.3349,1.3303,1.3282,1.3299,1.3298,1.3344,1.335,1.3366,1.3433,1.3436,1.3387,1.3389,1.3391,1.3392,0,0,0,0,0,0,0,1.3159,1.3169,1.3265,1.3245,1.3247,1.3245,1.3253,1.3297,1.3321,1.3283,1.3283,1.3291,1.3345,1.3362,1.3368,1.3437,1.3387,1.339,1.3393,1.3394,1.3554,1.3556,0,0,0,0,0,0,1.3153,1.3165,1.3263,1.3267,1.3201,1.3249,1.3257,1.3281,1.332,1.3325,1.3293,1.3291,1.3356,1.3363,1.337,1.3439,1.3391,1.3395,1.3397,1.3552,1.3555,1.3556,0,0,0,0,0,0,1.315,1.3162,1.3261,1.3216,1.3229,1.3253,1.328,1.3283,1.33,1.3327,1.3331,1.3306,1.3355,1.3364,1.3415,1.3441,1.3397,1.3401,1.355,1.3553,1.3556,1.3577,0,0,0,0,0,0,1.3146,1.3161,1.3182,1.3217,1.3231,1.3305,1.3281,1.3285,1.3307,1.3306,1.3341,1.3345,1.3354,1.3409,1.3419,1.3446,1.3404,1.3548,1.3552,1.3555,1.3574,1.358,1.3585,0,0,0,0,0,1.3142,1.3185,1.3184,1.3195,1.3259,1.3306,1.3314,1.3325,1.3309,1.3331,1.3349,1.3344,1.3437,1.3414,1.3426,1.3455,1.3547,1.3551,1.3554,1.3572,1.3579,1.3585,0,0,0,0,0,0,1.3153,1.319,1.3188,1.3245,1.3272,1.3305,1.3333,1.3332,1.3364,1.3361,1.3373,1.338,1.3432,1.3448,1.3423,1.3511,1.349,1.3496,1.3499,1.3506,1.3512,1.3507,1.3407,0,0,0,0,0,1.3162,1.3198,1.3228,1.3275,1.3289,1.3309,1.333,1.3335,1.3365,1.3376,1.3397,1.3426,1.3461,1.3485,1.3519,1.3577,1.3585,1.3602,1.3608,1.3612,1.3618,1.3651,1.3659,1.3569,1.3569,1.3569,0,0,1.3181,1.3206,1.3227,1.3278,1.33,1.3337,1.3319,1.3358,1.3386,1.3382,1.3432,1.3449,1.3481,1.3536,1.3561,1.3551,1.3644,1.3617,1.362,1.3624,1.3655,1.3664,1.3671,1.3572,1.3572,1.3571,0,0,1.3234,1.3256,1.3298,1.3321,1.3355,1.3368,1.3378,1.3412,1.3423,1.3473,1.3472,1.3505,1.3566,1.3589,1.3609,1.3673,1.367,1.3683,1.3713,1.3745,1.3752,1.3758,1.3782,1.379,1.3689,1.3689,1.3689,0,1.3253,1.3309,1.332,1.336,1.3383,1.3382,1.3424,1.3446,1.3489,1.3505,1.3493,1.357,1.3592,1.3653,1.3669,1.3685,1.3697,1.368,1.375,1.3756,1.3762,1.3785,1.3794,1.369,1.369,1.369,1.369,0,1.3332,1.337,1.34,1.3443,1.3469,1.351,1.3527,1.3551,1.3555,1.3569,1.3621,1.3647,1.3687,1.3702,1.3706,1.3764,1.3757,1.3747,1.3726,1.3772,1.3794,1.3802,1.3693,1.3692,1.3692,1.3691,0,0,1.3394,1.3443,1.3453,1.3473,1.3511,1.3541,1.3583,1.3623,1.3644,1.3674,1.371,1.3762,1.3754,1.3776,1.3783,1.3811,1.3861,1.3798,1.3799,1.3809,1.3928,1.3935,1.3945,1.3859,1.386,1.3862,1.3926,0,1.3452,1.3526,1.3537,1.3602,1.3638,1.3638,1.3675,1.3702,1.3717,1.375,1.3766,1.3803,1.3789,1.3803,1.383,1.3849,1.3885,1.3844,1.3892,1.3894,1.3885,1.3956,1.3964,1.4023,1.3934,1.3935,1.3936,0,1.3529,1.3562,1.3631,1.3666,1.3681,1.3714,1.3752,1.3783,1.3814,1.3823,1.3849,1.3852,1.3896,1.3872,1.3932,1.3905,1.3925,1.3937,1.394,1.3945,1.3918,1.3964,1.4042,1.4051,1.395,1.3948,1.3948,0,1.3569,1.3631,1.368,1.3697,1.3738,1.3761,1.3779,1.3809,1.3832,1.3865,1.3881,1.3918,1.3939,1.3968,1.3981,1.3963,1.4041,1.4019,1.405,1.405,1.4067,1.4066,1.415,1.4079,1.4079,1.4079,1.4079,0,1.3633,1.3675,1.3699,1.3729,1.3777,1.3789,1.3836,1.3853,1.388,1.3914,1.3916,1.3948,1.3964,1.3998,1.4009,1.4058,1.4067,1.4076,1.4078,1.4076,1.4075,1.409,1.4086,1.4081,1.4081,1.408,1.408,0,1.3685,1.3702,1.3757,1.3791,1.3801,1.3835,1.3864,1.3894,1.3909,1.3952,1.3963,1.3986,1.4027,1.4043,1.4093,1.41,1.4157,1.4156,1.4147,1.4148,1.4179,1.4176,1.4276,1.429,1.4209,1.421,1.421,0,1.3725,1.3758,1.3796,1.382,1.3839,1.3876,1.39,1.3914,1.3939,1.3978,1.4003,1.4044,1.4078,1.4143,1.4164,1.4203,1.4203,1.4235,1.4209,1.4206,1.4204,1.4203,1.4206,1.424,1.4241,1.4242,1.4242,0,1.3795,1.3802,1.3837,1.3876,1.3905,1.3936,1.3966,1.3985,1.4003,1.4031,1.4073,1.4099,1.4151,1.4192,1.4231,1.425,1.425,1.425,1.426,1.4258,1.4252,1.4257,1.4161,1.4248,1.4247,1.4247,1.4247,1.4246,1.3843,1.3873,1.3905,1.3944,1.3968,1.3996,1.4027,1.4045,1.4081,1.4124,1.413,1.4175,1.4206,1.426,1.428,1.4316,1.4308,1.4321,1.4325,1.4328,1.4331,1.4246,1.4323,1.4323,1.4323,1.4323,1.4323,0,1.3913,1.3934,1.397,1.4013,1.4044,1.4041,1.4074,1.4101,1.4141,1.417,1.4203,1.4252,1.4292,1.4317,1.4357,1.4381,1.4382,1.4391,1.439,1.4395,1.4336,1.4324,1.439,1.439,1.439,1.439,1.439,1.439,1.3954,1.4004,1.4015,1.4078,1.4098,1.4143,1.4162,1.4189,1.4212,1.4267,1.43,1.4316,1.4344,1.4387,1.4424,1.443,1.4445,1.4455,1.4461,1.4406,1.4399,1.4392,1.4381,1.4458,1.4458,1.4517,1.4518,1.4518]},{"header":{"parameterUnit":"m.s-1","parameterCategory":1,"la1":30.2991,"la2":30.254,"lo1":-89.0895,"lo2":-89.0444,"dy":0.0017,"dx":0.0017,"nx":28,"ny":28,"refTime":"2024-02-20T09:00:00:Z","depth":0,"parameterNumber":3,"parameterNumberName":"V-component_of_WINDS"},"data":[0,0,0,0,0,0,0,0,0,0,0,0,0,0,0,0,0,0,0,0,0,0,0,0,0,0,0,0,0,0,0,0,0,0,0,0,0,0,0,0,0,0,0,0,0,0,0,0,0,0,0,0,0,0,0,0,0,0,-1.2326,-1.2327,0,-1.2417,-1.2418,-1.2419,-1.2451,-1.2451,-1.2451,-1.245,-1.2544,-1.2547,-1.2549,0,0,0,0,0,0,0,0,0,0,0,0,0,-1.2181,-1.2183,-1.2326,-1.2327,-1.2328,-1.2417,-1.2418,-1.242,-1.2451,-1.2451,-1.2451,-1.245,-1.2543,-1.2546,-1.255,0,0,0,0,0,0,0,0,0,0,0,0,0,-1.2255,-1.2184,-1.2326,-1.2355,-1.2358,-1.2417,-1.2418,-1.242,-1.2451,-1.2451,-1.245,-1.245,-1.2542,-1.2546,-1.255,-1.2586,0,0,-1.2563,-1.2565,0,0,0,0,0,0,0,0,-1.2251,-1.226,-1.235,-1.2353,-1.2357,-1.2422,-1.2401,-1.2476,-1.2452,-1.2416,-1.245,-1.245,-1.2504,-1.2511,-1.2529,-1.2591,-1.2595,-1.2563,-1.2566,-1.2568,-1.2569,0,0,0,0,0,0,0,-1.2245,-1.2256,-1.2362,-1.2351,-1.2355,-1.2364,-1.2374,-1.2416,-1.2462,-1.2419,-1.2422,-1.2432,-1.2506,-1.2525,-1.2532,-1.2596,-1.2563,-1.2567,-1.257,-1.2571,-1.2692,-1.2693,0,0,0,0,0,0,-1.2235,-1.2252,-1.2359,-1.2365,-1.2302,-1.2367,-1.2378,-1.2402,-1.2461,-1.247,-1.2432,-1.2433,-1.2518,-1.2527,-1.2535,-1.2582,-1.2568,-1.2572,-1.2574,-1.2692,-1.2693,-1.2693,0,0,0,0,0,0,-1.2232,-1.2245,-1.2356,-1.2309,-1.2324,-1.237,-1.2397,-1.2404,-1.2423,-1.2471,-1.248,-1.2444,-1.2518,-1.2529,-1.2574,-1.2585,-1.2574,-1.2577,-1.2691,-1.2692,-1.2693,-1.2675,0,0,0,0,0,0,-1.2228,-1.2243,-1.2257,-1.2309,-1.2326,-1.2392,-1.2397,-1.2406,-1.2431,-1.2433,-1.2484,-1.2492,-1.2519,-1.2567,-1.2578,-1.2591,-1.2581,-1.269,-1.2691,-1.2693,-1.2675,-1.2675,-1.2676,0,0,0,0,0,-1.2222,-1.2249,-1.2258,-1.2271,-1.2345,-1.2393,-1.2402,-1.2432,-1.2431,-1.2446,-1.2477,-1.2491,-1.2583,-1.2571,-1.2584,-1.2598,-1.2689,-1.2691,-1.2693,-1.2674,-1.2675,-1.2676,0,0,0,0,0,0,-1.2197,-1.2256,-1.2267,-1.231,-1.2346,-1.2398,-1.2417,-1.2432,-1.2469,-1.2469,-1.2505,-1.2516,-1.2557,-1.2583,-1.2569,-1.2637,-1.2637,-1.2641,-1.2619,-1.262,-1.262,-1.2613,-1.2584,0,0,0,0,0,-1.2196,-1.223,-1.228,-1.2314,-1.2331,-1.2371,-1.2393,-1.2413,-1.2451,-1.2467,-1.2501,-1.2538,-1.2575,-1.2599,-1.2636,-1.2679,-1.2691,-1.2695,-1.2695,-1.2696,-1.2699,-1.2723,-1.2726,-1.2698,-1.2698,-1.2698,0,0,-1.2195,-1.2232,-1.2251,-1.2309,-1.234,-1.2374,-1.2384,-1.2419,-1.2445,-1.2472,-1.2516,-1.2542,-1.2586,-1.263,-1.2651,-1.2652,-1.2709,-1.2698,-1.2697,-1.27,-1.2725,-1.2728,-1.273,-1.2699,-1.2699,-1.2699,0,0,-1.2211,-1.2242,-1.2274,-1.2304,-1.2349,-1.2376,-1.2383,-1.2433,-1.2452,-1.2496,-1.2517,-1.2549,-1.2612,-1.2643,-1.2666,-1.2694,-1.2708,-1.2705,-1.2708,-1.2732,-1.2734,-1.2736,-1.2746,-1.2749,-1.2708,-1.2708,-1.2708,0,-1.2204,-1.2257,-1.2288,-1.2323,-1.2348,-1.2374,-1.2407,-1.2434,-1.249,-1.2507,-1.2507,-1.2588,-1.2619,-1.267,-1.2677,-1.2695,-1.2705,-1.2699,-1.2731,-1.2733,-1.2736,-1.2746,-1.2749,-1.2708,-1.2708,-1.2708,-1.2708,0,-1.2246,-1.2282,-1.2302,-1.2355,-1.2382,-1.2416,-1.2453,-1.2477,-1.2495,-1.2521,-1.2566,-1.2605,-1.265,-1.2664,-1.2682,-1.2718,-1.2717,-1.2724,-1.2725,-1.2737,-1.2747,-1.2751,-1.2707,-1.2707,-1.2707,-1.2707,0,0,-1.2248,-1.2318,-1.2324,-1.2349,-1.2401,-1.243,-1.2465,-1.2509,-1.2529,-1.2567,-1.2597,-1.265,-1.2657,-1.2684,-1.2705,-1.2726,-1.2746,-1.2731,-1.2732,-1.2732,-1.2788,-1.2783,-1.2787,-1.2756,-1.2757,-1.2757,-1.2785,0,-1.227,-1.2333,-1.2363,-1.2413,-1.2447,-1.2473,-1.2503,-1.2539,-1.2564,-1.2597,-1.2626,-1.2663,-1.2669,-1.2686,-1.2708,-1.2739,-1.2758,-1.2737,-1.2784,-1.2786,-1.2772,-1.2792,-1.2786,-1.281,-1.2789,-1.279,-1.279,0,-1.2305,-1.2342,-1.2395,-1.2444,-1.246,-1.2486,-1.253,-1.2561,-1.2602,-1.2619,-1.2649,-1.267,-1.2708,-1.2706,-1.2759,-1.2745,-1.2766,-1.2784,-1.2786,-1.2791,-1.2788,-1.2798,-1.2818,-1.2822,-1.2797,-1.2796,-1.2796,0,-1.23,-1.2364,-1.2404,-1.2424,-1.2482,-1.2501,-1.2526,-1.2566,-1.2591,-1.2629,-1.2646,-1.2688,-1.271,-1.2743,-1.2774,-1.277,-1.2824,-1.2825,-1.284,-1.2839,-1.285,-1.2849,-1.2874,-1.2864,-1.2864,-1.2864,-1.2864,0,-1.2322,-1.2354,-1.2403,-1.2428,-1.2464,-1.2498,-1.2533,-1.256,-1.2596,-1.2627,-1.2652,-1.268,-1.2721,-1.2754,-1.2779,-1.282,-1.283,-1.2845,-1.2851,-1.2843,-1.2841,-1.2857,-1.2856,-1.2865,-1.2864,-1.2864,-1.2864,0,-1.2323,-1.2358,-1.2403,-1.2454,-1.2468,-1.2493,-1.2537,-1.2562,-1.2589,-1.2628,-1.2639,-1.2682,-1.2722,-1.2757,-1.2811,-1.2828,-1.287,-1.2877,-1.2855,-1.2859,-1.2872,-1.287,-1.2908,-1.2915,-1.29,-1.29,-1.29,0,-1.2335,-1.236,-1.2414,-1.2436,-1.2461,-1.2496,-1.2522,-1.2556,-1.2582,-1.2631,-1.265,-1.2693,-1.2729,-1.2793,-1.2829,-1.2871,-1.2879,-1.289,-1.2886,-1.2876,-1.2879,-1.2877,-1.288,-1.289,-1.289,-1.289,-1.289,0,-1.2352,-1.2368,-1.2403,-1.2445,-1.2475,-1.251,-1.2545,-1.2562,-1.2603,-1.2631,-1.2673,-1.2701,-1.2756,-1.2798,-1.2843,-1.287,-1.2887,-1.2891,-1.2897,-1.2888,-1.2874,-1.2882,-1.2856,-1.289,-1.289,-1.289,-1.289,-1.289,-1.2359,-1.2382,-1.2424,-1.2463,-1.2493,-1.2526,-1.2552,-1.2582,-1.2618,-1.2665,-1.2684,-1.2727,-1.2768,-1.2831,-1.2857,-1.2891,-1.2894,-1.2902,-1.2904,-1.2906,-1.2904,-1.2869,-1.29,-1.29,-1.29,-1.29,-1.29,0,-1.2377,-1.2405,-1.244,-1.2489,-1.252,-1.2533,-1.2573,-1.2598,-1.2636,-1.2673,-1.2708,-1.2756,-1.2797,-1.2837,-1.288,-1.29,-1.2909,-1.291,-1.2909,-1.2915,-1.2899,-1.289,-1.2902,-1.2902,-1.2902,-1.2902,-1.2902,-1.2902,-1.239,-1.243,-1.2451,-1.2507,-1.2535,-1.2577,-1.2599,-1.2629,-1.2659,-1.2711,-1.2746,-1.2771,-1.2809,-1.2856,-1.2894,-1.2905,-1.292,-1.2919,-1.2931,-1.2916,-1.2916,-1.2915,-1.2907,-1.2922,-1.2922,-1.2944,-1.2944,-1.2944]}]]